Location: Amherst
(42.3800°N, 72.5240°W)
Time: 18:08:29
(UTC-04:00)

ISS - Visible Passes

Search period start: 05 May 2021 00:00
Search period end: 15 May 2021 00:00
Orbit: 418 x 421 km, 51.6° (Epoch: 05 May)

Date Brightness Start Highest point End Pass type
(mag) Time Alt. Az. Time Alt. Az. Time Alt. Az.
05 May -1.0 02:13:02 18° NE 02:13:02 18° NE 02:14:00 10° NE visible
05 May -1.5 03:45:59 14° NW 03:47:53 21° NNW 03:50:31 10° NE visible
06 May -1.9 03:00:05 25° NNW 03:00:16 25° NNW 03:03:10 10° NE visible
06 May -1.0 04:35:37 10° NW 04:37:55 17° N 04:40:13 10° NE visible
07 May -1.3 02:14:09 23° NNE 02:14:09 23° NNE 02:15:49 10° NE visible
07 May -1.0 03:47:56 10° NW 03:50:15 17° N 03:52:35 10° NE visible
08 May -0.5 01:28:12 12° NE 01:28:12 12° NE 01:28:28 10° NE visible
08 May -1.2 03:01:08 14° NW 03:02:35 18° N 03:05:03 10° NE visible
08 May -1.1 04:37:45 10° NW 04:40:19 20° NNE 04:42:53 10° ENE visible
09 May -1.3 02:15:09 21° N 02:15:09 21° N 02:17:37 10° NE visible
09 May -0.9 03:50:16 10° NW 03:52:39 18° N 03:55:03 10° NE visible
10 May -0.8 01:29:08 17° NNE 01:29:08 17° NNE 01:30:13 10° NE visible
10 May -0.9 03:02:42 10° NW 03:05:00 17° N 03:07:17 10° NE visible
10 May -1.7 04:39:33 10° NW 04:42:35 29° NNE 04:45:36 10° E visible
11 May -1.0 02:16:02 14° NNW 02:17:18 17° N 02:19:38 10° NE visible
11 May -1.3 03:52:11 10° NW 03:54:59 23° NNE 03:57:47 10° ENE visible
12 May -0.9 01:29:56 18° N 01:29:56 18° N 01:32:05 10° NE visible
12 May -1.0 03:04:47 10° NW 03:07:21 20° NNE 03:09:55 10° ENE visible
12 May -3.2 04:41:19 10° NW 04:44:40 61° NNE 04:48:01 10° ESE visible
13 May -0.7 00:43:43 15° NNE 00:43:43 15° NNE 00:44:38 10° NE visible
13 May -0.8 02:17:18 10° NW 02:19:41 18° N 02:22:05 10° NE visible
13 May -2.3 03:53:56 10° NW 03:57:09 41° NNE 04:00:23 10° E visible
13 May -0.5 23:57:12 10° NE 23:57:12 10° NE 23:57:14 10° NE visible
14 May -0.7 01:30:05 12° NW 01:32:00 17° N 01:34:18 10° NE visible
14 May -1.7 03:06:34 10° NW 03:09:36 30° NNE 03:12:37 10° E visible
14 May -3.5 04:43:15 10° WNW 04:46:32 48° SW 04:49:47 10° SE visible
14 May -3.4 21:26:45 10° SSW 21:29:54 39° SE 21:33:05 10° ENE visible
14 May -2.0 23:03:41 10° W 23:06:46 33° NNW 23:09:52 10° NE visible
